Regional Weather Roundup
Issued by NWS

Home | Current Version | Previous Version | Graphics & Text | Print | Product List | Glossary On
Versions: 1 2 3 4 5 6 7 8 9 10 11 12 13 14 15 16 17 18 19 20 21 22 23 24 25 26 27 28 29 30 31 32 33 34 35 36 37 38 39 40 41 42 43 44 45 46 47 48 49 50
000
ASUS43 KLOT 290502
RWRIL

ILLINOIS REGIONAL WEATHER ROUNDUP
NATIONAL WEATHER SERVICE CHICAGO/ROMEOVILLE IL
1200 AM CDT SUN MAR 29 2015

NOTE: "FAIR" INDICATES FEW OR NO CLOUDS BELOW 12,000 FEET WITH NO
SIGNIFICANT WEATHER AND/OR OBSTRUCTIONS TO VISIBILITY.

* THESE STATIONS ARE NOT UNDER NWS QUALITY CONTROL. THEY ALSO MAY NOT
  REPORT WEATHER SUCH AS PRECIPITATION OR FOG.

ILZ001-002-007-009-015-016-024-290600-
NORTHWEST ILLINOIS

CITY           SKY/WX    TMP DP  RH WIND       PRES   REMARKS
MOLINE         CLEAR     30  16  56 S10       30.22F WCI  21
STERLING*      CLEAR     30  16  55 S3        30.24F
$$

ILZ003-004-008-010-011-017-018-290600-
NORTH CENTRAL ILLINOIS

CITY           SKY/WX    TMP DP  RH WIND       PRES   REMARKS
ROCKFORD       MOCLDY    29  16  58 S9        30.25F WCI  20
FREEPORT*      CLEAR     26  18  71 S8        30.24F WCI  18
$$

ILZ005-006-012>014-019>023-290600-
NORTHEAST ILLINOIS

CITY           SKY/WX    TMP DP  RH WIND       PRES   REMARKS
CHICAGO-OHARE  CLEAR     23  15  71 S8        30.26F WCI  14
CHICAGO-MIDWAY CLEAR     29  12  49 S8        30.28F WCI  21
AURORA         CLEAR     25  14  63 SE8       30.26F WCI  16
WAUKEGAN       CLEAR     24  12  60 S7        30.25S WCI  16
DUPAGE AIRPORT CLEAR     24  13  62 S7        30.26S WCI  16
WHEELING       CLEAR     23  12  62 S6        30.28S WCI  16
NORTHERLY ISL    N/A     28  15  58 S5          N/A  WCI  23
$$

LMZ740>746-290600-
SOUTHERN LAKE MICHIGAN

STATION/POSITION SKY/WX   TEMP    WIND        PRES    VSBY  WAVE
                          AIR SEA DIR/SP/G                  HT/PER
                          (F)     (DEG/KT/KT) (MB)    (MI)  (FT/S)
HARRISON CRIB              30     160/ 12/ 15   N/A
BURNHAM HARBOR             31     150/  8/  9   N/A
CALUMET HARBOR             27     150/  6/  8 1024.5F
BURNS HARBOR               26     160/  5/  8 1026.8F
MICHIGAN CITY              24     120/  7/  9   N/A
$$

ILZ025>027-034>036-040-047-049-050-058-095>099-290600-
WEST-CENTRAL ILLINOIS

CITY           SKY/WX    TMP DP  RH WIND       PRES   REMARKS
QUINCY         CLEAR     34  20  56 SE10      30.22F WCI  26
$$

ILZ028>032-037-038-041>044-048-051>054-059>061-290600-
CENTRAL ILLINOIS

CITY           SKY/WX    TMP DP  RH WIND       PRES   REMARKS
DECATUR        CLEAR     29  18  63 SE8       30.30F WCI  21
PEORIA         CLEAR     32  19  58 S5        30.27F WCI  27
LINCOLN*       CLEAR     30  23  76 S5        30.30F WCI  25
SPRINGFIELD    CLEAR     32  20  61 SE10      30.28F WCI  24
TAYLORVILLE    NOT AVBL
$$

ILZ033-039-045-046-055>057-062-063-290600-
EAST-CENTRAL ILLINOIS

CITY           SKY/WX    TMP DP  RH WIND       PRES   REMARKS
CHAMPAIGN      CLEAR     28  18  66 SE7       30.30S WCI  21
MATTOON        CLEAR     29  19  66 SE3       30.31S
$$

ILZ079-100>102-290600-
SOUTHWEST ILLINOIS

CITY           SKY/WX    TMP DP  RH WIND       PRES   REMARKS
BELLEVILLE     CLEAR     32  21  64 SE7       30.30S WCI  25
CAHOKIA*       CLEAR     35  20  54 SE9       30.29F WCI  28
SPARTA*        CLEAR     33  20  58 SE7       30.32S WCI  27
$$

ILZ064>066-069>071-074>076-080>082-084>086-088>090-092>094-290600-
SOUTH-CENTRAL ILLINOIS

CITY           SKY/WX    TMP DP  RH WIND       PRES   REMARKS
CARBONDALE     CLEAR     32  19  58 SE6       30.33S WCI  26
MT. VERNON     CLEAR     30  18  59 E3        30.32F
SALEM*         CLEAR     34  18  50 SE5       30.32F WCI  30
$$

ILZ067-068-072-073-078-083-087-091-290600-
SOUTHEAST ILLINOIS

CITY           SKY/WX    TMP DP  RH WIND       PRES   REMARKS
LAWRENCEVILLE  CLEAR     29  24  82 CALM      30.35S
ROBINSON*      CLEAR     26  23  88 CALM      30.35F
$$

ABBREVIATIONS USED IN REMARKS
   TC - TEMPERATURE IN CELSIUS
  WCI - WIND CHILL INDEX
   HX - HEAT INDEX
  VSB - VISIBILITY
$$




USA.gov is the U.S. government's official web portal to all federal, state and local government web resources and services.